North Platte, NE

9:06 PM CDT on September 26, 2016 (GMT -0500)
North Platte Regional-Bird

Weather History for KLBF - March, 2014

Change the Weather History Date:

Tuesday, March 25, 2014

  Actual Average Record
Temperature  
Mean Temperature 33 °F 41 °F  
Max Temperature 47 °F 55 °F 84 °F (1907)
Min Temperature 18 °F 26 °F 0 °F (1965)
Degree Days  
Heating Degree Days 32 24  
Month to date heating degree days 747 697  
Since 1 July heating degree days 5938 5725  
Cooling Degree Days 0 0  
Month to date cooling degree days 0 0  
Year to date cooling degree days 0 0  
Moisture  
Dew Point 16 °F    
Average Humidity 55    
Maximum Humidity 75    
Minimum Humidity 34    
Precipitation  
Precipitation 0.00 in 0.03 in 1.61 in (1959)
Month to date precipitation 0.43 0.78  
Year to date precipitation 1.48 1.62  
Snow  
Snow 0.00 in 0.10 in 6.30 in (1959)
Month to date snowfall 6.1 3.5  
Since 1 July snowfall 28.5 24.4  
Snow Depth 0.00 in    
Sea Level Pressure  
Sea Level Pressure 30.27 in    
Wind  
Wind Speed 10 mph (WSW)    
Max Wind Speed 18 mph    
Max Gust Speed 24 mph    
Visibility 10 miles    
Events      
T = Trace of Precipitation, MM = Missing Value Source: NWS Daily Summary

Daily Weather History Graph

Daily Weather History Graph

Search for Another Location

Airport or City:

Trip Planner

Search our weather history database for the weather conditions in past years. The results will help you decide how hot, cold, wet, or windy it might be!

Date:

Astronomy

Mar. 25, 2014 Rise Set
Actual Time 7:37 AM CDT 8:00 PM CDT
Civil Twilight 7:10 AM CDT 8:27 PM CDT
Nautical Twilight 6:37 AM CDT 9:00 PM CDT
Astronomical Twilight 6:04 AM CDT 9:33 PM CDT
Moon 4:03 AM CDT (3/25) 2:30 PM CDT (3/25)
Length of Visible Light 13h 17m
Length of Day
12h 22m
Waning Crescent, 32% of the Moon is Illuminated
Mar 25
Waning Crescent
Mar 30
New
Apr 7
First Quarter
Apr 15
Full
Apr 22
Last Quarter

Hourly Weather History & Observations

Time (CDT) Temp. Windchill Dew Point Humidity Pressure Visibility Wind Dir Wind Speed Gust Speed Precip Events Conditions
12:53 AM 28.9 °F 19.8 °F 21.0 °F 72% 30.38 in 10.0 mi NNW 10.4 mph - N/A   Overcast
1:53 AM 28.9 °F 18.2 °F 18.0 °F 64% 30.40 in 10.0 mi NNW 13.8 mph - N/A   Overcast
2:53 AM 28.9 °F 18.6 °F 18.0 °F 64% 30.41 in 10.0 mi North 12.7 mph - N/A   Overcast
3:53 AM 26.1 °F 15.6 °F 14.0 °F 60% 30.41 in 10.0 mi North 11.5 mph - N/A   Overcast
4:53 AM 24.1 °F 17.0 °F 10.9 °F 57% 30.43 in 10.0 mi NNW 5.8 mph - N/A   Overcast
5:53 AM 23.0 °F 13.1 °F 9.0 °F 55% 30.42 in 10.0 mi North 9.2 mph - N/A   Overcast
6:53 AM 21.9 °F 13.4 °F 8.1 °F 55% 30.43 in 10.0 mi NNW 6.9 mph - N/A   Overcast
7:53 AM 19.9 °F 13.4 °F 9.0 °F 62% 30.45 in 10.0 mi West 4.6 mph - N/A   Overcast
8:53 AM 23.0 °F 17.0 °F 7.0 °F 50% 30.46 in 10.0 mi NW 4.6 mph - N/A   Overcast
9:53 AM 26.1 °F 16.2 °F 7.0 °F 44% 30.45 in 10.0 mi NW 10.4 mph - N/A   Mostly Cloudy
10:53 AM 27.0 °F 23.0 °F 7.0 °F 43% 30.44 in 10.0 mi Variable 3.5 mph - N/A   Clear
11:53 AM 28.9 °F - 10.0 °F 45% 30.40 in 10.0 mi Calm Calm - N/A   Clear
12:53 PM 33.1 °F 26.9 °F 12.0 °F 42% 30.35 in 10.0 mi Variable 6.9 mph - N/A   Clear
1:53 PM 37.0 °F 31.0 °F 14.0 °F 39% 30.28 in 10.0 mi SW 8.1 mph - N/A   Clear
2:53 PM 39.9 °F 33.4 °F 17.1 °F 40% 30.22 in 10.0 mi South 10.4 mph 18.4 mph N/A   Clear
3:53 PM 43.0 °F 35.7 °F 18.0 °F 37% 30.18 in 10.0 mi SW 15.0 mph - N/A   Clear
4:53 PM 46.0 °F 39.6 °F 19.0 °F 34% 30.14 in 10.0 mi South 15.0 mph 21.9 mph N/A   Clear
5:53 PM 46.0 °F 40.2 °F 21.9 °F 39% 30.09 in 10.0 mi SSE 12.7 mph - N/A   Clear
6:53 PM 46.0 °F 40.2 °F 23.0 °F 40% 30.06 in 10.0 mi SSE 12.7 mph - N/A   Clear
7:53 PM 41.0 °F 35.2 °F 23.0 °F 49% 30.04 in 10.0 mi SE 9.2 mph - N/A   Clear
8:53 PM 37.9 °F 30.9 °F 23.0 °F 55% 30.02 in 10.0 mi SE 10.4 mph - N/A   Clear
9:53 PM 35.1 °F 27.9 °F 21.9 °F 59% 30.01 in 10.0 mi SE 9.2 mph - N/A   Clear
10:53 PM 35.1 °F 27.4 °F 21.0 °F 57% 30.00 in 10.0 mi SE 10.4 mph - N/A   Clear
11:53 PM 35.1 °F 25.2 °F 21.0 °F 57% 29.98 in 10.0 mi SE 16.1 mph 23.0 mph N/A   Clear